This demonstration page uses our WeatherBlox Daily Observations layout. Learn more.

Left ArrowRight Arrow

40.92945, -100.16068

Hourly Observations for July 22, 2019

Temp ( °F °C ) Dew Point ( °F °C ) Humidity (%) Winds ( mph kmh ) Pressure ( in mb ) Visibility ( mi km ) Precip ( " mm )
12:15 am 00:15 Cloudy 65 18.1 58 14.6 80 80 NE 5 7 30.19 1022 10 16 N/A
12:35 am 00:35 Cloudy 64 18 59 15.1 83 83 NNE 5 7 30.20 1023 10 16 N/A
12:55 am 00:55 Cloudy 64 17.9 61 15.9 88 88 N 5 7 30.20 1023 10 16 N/A
1:15 am 01:15 Cloudy 64 17.8 62 16.4 92 92 N 6 9 30.20 1023 10 16 N/A
1:35 am 01:35 Cloudy 64 17.5 62 16.5 94 94 NNE 5 7 30.20 1023 10 16 N/A
1:55 am 01:55 Cloudy 63 17.3 62 16.6 96 96 NNE 5 7 30.21 1023 10 16 N/A
2:15 am 02:15 Mostly Cloudy 62 16.7 61 16.2 97 97 N 5 7 30.23 1024 10 16 N/A
2:35 am 02:35 Partly Cloudy 61 16 60 15.7 98 98 NNE 5 7 30.24 1024 10 16 N/A
2:55 am 02:55 Clear 61 16 60 15.5 97 97 NNE 5 7 30.24 1024 10 16 N/A
3:15 am 03:15 Clear 60 15.5 59 15.1 97 97 N 3 6 30.24 1024 10 16 N/A
3:35 am 03:35 Clear 59 15.1 59 14.9 99 99 N N/A 30.24 1024 10 16 N/A
3:55 am 03:55 Clear 59 15 58 14.7 98 98 N 3 6 30.25 1024 10 16 N/A
4:15 am 04:15 Clear 58 14.6 58 14.3 98 98 N 3 6 30.25 1024 10 16 N/A
4:35 am 04:35 Clear 58 14.4 57 14 97 97 N N/A 30.25 1024 10 16 N/A
4:55 am 04:55 Clear 57 14 57 13.9 99 99 N 3 6 30.25 1025 10 16 N/A
5:15 am 05:15 Clear 57 13.9 56 13.5 97 97 N 5 7 30.26 1025 10 16 N/A
5:35 am 05:35 Clear 57 13.9 56 13.3 96 96 N 5 7 30.27 1025 10 16 N/A
5:55 am 05:55 Clear 57 13.9 56 13.1 95 95 N 6 9 30.27 1025 10 16 N/A
6:15 am 06:15 Clear 57 14 56 13.1 94 94 N 7 11 30.27 1025 10 16 N/A
6:35 am 06:35 Partly Cloudy 57 13.8 55 13 95 95 NNE 7 11 30.28 1025 10 16 N/A
6:55 am 06:55 Mostly Cloudy 57 14.1 56 13.2 94 94 N 7 11 30.28 1026 10 16 N/A
7:15 am 07:15 Cloudy 58 14.5 56 13.6 94 94 N 5 7 30.29 1026 10 16 N/A
7:35 am 07:35 Mostly Cloudy 58 14.7 57 13.9 95 95 N N/A 30.30 1026 10 16 N/A
7:55 am 07:55 Cloudy 60 15.6 58 14.3 92 92 N N/A 30.29 1026 10 16 N/A
8:15 am 08:15 Mostly Cloudy 61 16.2 58 14.5 90 90 N N/A 30.29 1026 10 16 N/A
8:35 am 08:35 Mostly Cloudy 63 17 58 14.7 86 86 N N/A 30.30 1026 10 16 N/A
8:55 am 08:55 Partly Cloudy 64 17.6 58 14.7 83 83 N N/A 30.29 1026 10 16 N/A
9:15 am 09:15 Partly Cloudy 64 18 59 15 83 83 N N/A 30.29 1026 10 16 N/A
9:35 am 09:35 Partly Cloudy 66 18.7 58 14.7 78 78 NE 5 7 30.28 1025 7 11 N/A
9:55 am 09:55 Sunny 66 19.1 58 14.5 75 75 E 3 6 30.28 1025 10 16 N/A
10:15 am 10:15 Partly Cloudy 68 19.8 57 14 69 69 NE 6 9 30.27 1025 10 16 N/A
10:35 am 10:35 Sunny 69 20.4 59 14.9 71 71 ENE 6 9 30.26 1025 10 16 N/A
11:15 am 11:15 Sunny 70 21.2 57 13.8 63 63 NNE 9 15 30.25 1024 10 16 N/A
11:35 am 11:35 Sunny 71 21.7 59 15 66 66 NE 7 11 30.26 1025 10 16 N/A
11:55 am 11:55 Sunny 71 21.9 58 14.4 63 63 NE 9 15 30.25 1025 10 16 N/A
12:15 pm 12:15 Sunny 72 22.4 58 14.7 62 62 NNE 8 13 30.25 1024 10 16 N/A
12:35 pm 12:35 Sunny 72 22.3 57 14.1 60 60 NE 12 19 30.24 1024 10 16 N/A
12:55 pm 12:55 Sunny 73 22.5 57 13.9 58 58 E 8 13 30.24 1024 10 16 N/A
1:15 pm 13:15 Sunny 73 22.8 58 14.6 60 60 ENE 7 11 30.23 1024 10 16 N/A
1:35 pm 13:35 Sunny 73 22.7 58 14.5 60 60 NE 10 17 30.23 1024 7 11 N/A
1:55 pm 13:55 Sunny 73 23 59 15.2 62 62 NNE 9 15 30.23 1024 10 16 N/A
2:15 pm 14:15 Sunny 74 23.1 59 14.9 60 60 NNE 7 11 30.21 1023 10 16 N/A
2:35 pm 14:35 Sunny 74 23.3 59 14.9 59 59 NE 7 11 30.21 1023 10 16 N/A
2:55 pm 14:55 Sunny 74 23.3 58 14.3 57 57 ENE 6 9 30.21 1023 10 16 N/A
3:15 pm 15:15 Partly Cloudy 74 23.4 58 14.4 57 57 E 8 13 30.20 1023 10 16 N/A
3:35 pm 15:35 Partly Cloudy 75 23.7 60 15.5 60 60 ENE 9 15 30.20 1023 10 16 N/A
3:55 pm 15:55 Partly Cloudy 75 23.7 60 15.4 60 60 NE 9 15 30.20 1023 10 16 N/A
4:15 pm 16:15 Partly Cloudy 75 24 60 15.5 59 59 NE 8 13 30.19 1022 10 16 N/A
4:35 pm 16:35 Partly Cloudy 73 22.9 59 15.1 62 62 NE 7 11 30.20 1023 10 16 N/A
4:55 pm 16:55 Partly Cloudy 75 23.7 59 15 58 58 ENE 3 6 30.19 1022 10 16 N/A
5:15 pm 17:15 Partly Cloudy 73 22.8 60 15.5 64 64 ENE 5 7 30.20 1023 10 16 N/A
5:35 pm 17:35 Mostly Cloudy 72 22.3 61 15.9 67 67 E 6 9 30.20 1023 10 16 N/A
5:55 pm 17:55 Partly Cloudy 72 22.4 59 14.8 62 62 ENE 6 9 30.19 1022 10 16 N/A
6:15 pm 18:15 Partly Cloudy 74 23.4 59 15.2 60 60 NE 8 13 30.18 1022 10 16 N/A
6:35 pm 18:35 Partly Cloudy 74 23.2 59 15.1 60 60 ENE 7 11 30.18 1022 10 16 N/A
6:55 pm 18:55 Sunny 73 23 58 14.7 60 60 ENE 8 13 30.18 1022 10 16 N/A
7:15 pm 19:15 Partly Cloudy 73 22.6 59 15.1 63 63 E 7 11 30.18 1022 10 16 N/A
7:35 pm 19:35 Sunny 72 22.3 60 15.3 65 65 ENE 6 9 30.19 1022 10 16 N/A
7:55 pm 19:55 Sunny 71 21.7 60 15.5 68 68 ENE 6 9 30.21 1023 10 16 N/A
8:55 pm 20:55 Sunny 67 19.2 60 15.5 79 79 E 5 7 30.23 1024 10 16 N/A
9:15 pm 21:15 Clear 65 18.5 60 15.3 82 82 E 6 9 30.23 1024 10 16 N/A
9:35 pm 21:35 Clear 65 18.3 59 15.2 82 82 E 5 7 30.24 1024 10 16 N/A
9:55 pm 21:55 Clear 64 17.7 59 15.1 85 85 E 5 7 30.25 1024 10 16 N/A
10:15 pm 22:15 Clear with Mist and Fog 62 16.9 60 15.5 92 92 E 5 7 30.27 1025 5 8 N/A
10:35 pm 22:35 Clear 62 16.7 60 15.5 93 93 E 5 7 30.28 1025 10 16 N/A
10:55 pm 22:55 Clear 62 16.5 59 15.2 92 92 N N/A 30.28 1025 10 16 N/A
11:15 pm 23:15 Clear 61 16.2 59 15.2 94 94 N N/A 30.28 1026 10 16 N/A
11:35 pm 23:35 Clear 61 16.3 60 15.3 94 94 SE 3 6 30.28 1026 10 16 N/A
11:55 pm 23:55 Clear 61 15.9 59 15.2 96 96 ESE 3 6 30.29 1026 10 16 N/A

Powered by AerisWeather